Regional Weather Roundup
Issued by NWS

Home | Current Version | Previous Version | Graphics & Text | Print | Product List | Glossary On
Versions: 1 2 3 4 5 6 7 8 9 10 11 12 13 14 15 16 17 18 19 20 21 22 23 24 25 26 27 28 29 30 31 32 33 34 35 36 37 38 39 40 41 42 43 44 45 46 47 48 49 50
000
ASUS45 KBOU 041610
RWRCO

WEATHER ROUNDUP FOR COLORADO
NATIONAL WEATHER SERVICE DENVER/BOULDER CO
1000 AM MDT SAT JUL 04 2015

NOTE: "FAIR" INDICATES FEW OR NO CLOUDS BELOW 12000 FEET WITH NO
SIGNIFICANT WEATHER AND/OR OBSTRUCTIONS TO VISIBILITY.

COZ001>005-013-030-031-041700-
...NORTHWEST COLORADO...

CITY           SKY/WX    TMP DP  RH WIND       PRES   REMARKS
CRAIG          MOSUNNY   80  49  33 N5        30.16S
HAYDEN         SUNNY     73  43  33 E6        30.18F
MEEKER         MOSUNNY   76  49  38 CALM      30.19S
MOUNT WERNER   NOT AVBL
STEAMBOAT SPGS SUNNY     69  46  43 CALM      30.21F
WALDEN         MOSUNNY   72  41  33 SW8       30.28S
$$

COZ006>008-011-041700-
...WEST CENTRAL VALLEYS...

CITY           SKY/WX    TMP DP  RH WIND       PRES   REMARKS
GRAND JUNCTION MOSUNNY   82  50  32 S16       30.08F
MONTROSE       PTSUNNY   75  52  44 SE15      30.19F
EAGLE          SUNNY     73  46  38 CALM      30.22F
RIFLE          MOSUNNY   75  53  46 NE3       30.15F
DELTA          PTSUNNY   82  49  31 E7        30.15S
NUCLA          PTSUNNY   73  50  43 CALM      30.20F
$$

COZ017>023-064>068-041700-
...SOUTHWEST COLORADO...

CITY           SKY/WX    TMP DP  RH WIND       PRES   REMARKS
DURANGO        MOSUNNY   75  47  36 NE6       30.24F
CORTEZ         SUNNY     79  51  37 SE3       30.17F
PAGOSA SPRINGS MOSUNNY   69  45  42 S5        30.34R
TELLURIDE      CLOUDY    62  47  58 CALM      30.43F
WOLF CREEK PAS NOT AVBL
$$

COZ009-010-012-014-032>034-037-058>063-041700-
...CENTRAL COLORADO...

CITY           SKY/WX    TMP DP  RH WIND       PRES   REMARKS
ASPEN          MOSUNNY   70  45  40 CALM      30.29F
BUENA VISTA    SUNNY     69  45  41 SE6       30.30S
COPPER MTN     MOSUNNY   59  37  44 W28G33    30.60F
BERTHOUD PASS  FAIR      52  41  66 NW24G31   30.62S
COTTONWOOD PAS NOT AVBL
GUNNISON       MOSUNNY   64  46  52 CALM      30.36F
KREMMLING      SUNNY     72  41  33 CALM      30.27S
LEADVILLE      SUNNY     66  40  38 NW12G20   30.42F
MONARCH PASS   SUNNY     50  43  76 W20       30.71R
SALIDA         SUNNY     75  47  38 CALM      30.32F
SUNLIGHT       SUNNY     63  48  59 CALM      30.55S
WILKERSON PASS SUNNY     57  43  58 NW10G17   30.56R
$$

COZ069>075-041700-
...SAN LUIS VALLEY/SANGRE DE CRISTO MOUNTAINS...

CITY           SKY/WX    TMP DP  RH WIND       PRES   REMARKS
ALAMOSA        SUNNY     65  50  58 VRB3      30.31F
LA VETA PASS   MOSUNNY   57  50  77 MISG      30.46R
SAGUACHE       SUNNY     64  50  59 SW3       30.34S
$$

COZ035-036-038>040-041700-
...NORTHERN COLORADO FRONT RANGE...

CITY           SKY/WX    TMP DP  RH WIND       PRES   REMARKS
DENVER INTL AP MOSUNNY   79  58  48 W6        30.03S
DMNS CITY PARK   N/A     82  53  36 E1        30.01F
AURORA         MOSUNNY   80  55  42 W6        30.05S
FRONT RANGE AP SUNNY     81  55  41 W7        30.04S
ERIE MUNI ARPT SUNNY     77  57  50 MISG      30.01F
BOULDER MUN AP SUNNY     75  59  57 NE6       30.01S
CENTENNIAL     MOSUNNY   80  50  34 SW5       30.06F
BROOMFIELD     MOSUNNY   75  59  57 VRB6      30.05S
FORT COLLINS   SUNNY     75  57  53 CALM      30.00F
LONGMONT       SUNNY     80  57  44 CALM      30.01F
$$

COZ041-046-047-076>085-087-088-041700-
...PIKES PEAK/PALMER DIVIDE AND SOUTHERN FOOTHILLS...

CITY           SKY/WX    TMP DP  RH WIND       PRES   REMARKS
COLO. SPRINGS  MOSUNNY   75  55  49 CALM      30.11F
A. F. ACADEMY  SUNNY     79  52  39 SW2       30.12S
ELLICOTT       SUNNY    N/A N/A N/A SW6       30.09F
FALCON         SUNNY     77  48  36 CALM      30.17S
FORT CARSON    SUNNY     72  56  57 E2        30.08S
LIMON          SUNNY     76  57  51 S12       30.06S
MONUMENT HILL  NOT AVBL
TRINIDAD       SUNNY     77  57  50 SE7       30.10S
$$

COZ042>045-048>051-090-091-041700-
...NORTHEAST COLORADO...

CITY           SKY/WX    TMP DP  RH WIND       PRES   REMARKS
GREELEY ARPT   SUNNY     73  61  64 CALM      29.99F
AKRON          SUNNY     82  57  42 SE12      29.99S
BURLINGTON     SUNNY     76  61  59 S17       30.00F
WRAY           MOSUNNY   82  60  46 SE13      29.96S
STERLING       SUNNY     79  63  57 SW7         N/A
HOLYOKE        MOSUNNY   79  63  57 S13       29.96S
FORT MORGAN    SUNNY     79  56  44 SW3       29.98S
$$

COZ086-089-092>099-041700-
...SOUTHEAST COLORADO...

CITY           SKY/WX    TMP DP  RH WIND       PRES   REMARKS
PUEBLO         SUNNY     80  58  46 SE5       30.01F
LA JUNTA       SUNNY     83  56  39 S6        29.99F
LAMAR          SUNNY     80  58  46 SE5       29.97F
SPRINGFIELD      N/A     83  54  36 SE6       30.01F
$$


USA.gov is the U.S. government's official web portal to all federal, state and local government web resources and services.